Regional Weather Roundup
Issued by NWS

Home | Current Version | Previous Version | Graphics & Text | Print | Product List | Glossary On
Versions: 1 2 3 4 5 6 7 8 9 10 11 12 13 14 15 16 17 18 19 20 21 22 23 24 25 26 27 28 29 30 31 32 33 34 35 36 37 38 39 40 41 42 43 44 45 46 47 48 49 50
928
ASUS45 KABQ 220101
RWRNM
NEW MEXICO REGIONAL WEATHER ROUNDUP
NATIONAL WEATHER SERVICE ALBUQUERQUE NM
600 PM MST TUE FEB 21 2017

NOTE: "FAIR" MEANS FEW OR NO CLOUDS BELOW 12,000 FEET AGL WITH NO
       SIGNIFICANT WEATHER OR OBSTRUCTIONS TO VISION.

      THIS PRODUCT IS RELEASED AS TWO VERSIONS.  ONE VERSION NEAR
      THE TOP OF THE HOUR CONTAINING PRELIMINARY DATA FROM ALBUQUERQUE
      AND OTHER STATIONS.  A FINAL VERSION WITH ADDITIONAL DATA IS
      ISSUED ABOUT 10 MINUTES AFTER THE HOUR.

NMZ501-503-504-510>518-220200-
NORTHWEST PLATEAU/NORTHCENTRAL MOUNTAINS

CITY           SKY/WX    TMP DP  RH WIND       PRES   REMARKS
FARMINGTON     FAIR      57  30  35 SW7       30.19F
LOS ALAMOS     FAIR      56  26  31 CALM      30.27S
SANTA FE       FAIR      58  17  20 W8        30.21R
TAOS             N/A     52  18  25 W13       30.25S
ANGEL FIRE     FAIR      46  20  35 W16       30.29S

$$
NMZ402-403-502-505>509-220200-
WESTCENTRAL MOUNTAINS/SOUTHWEST MOUNTAINS

CITY           SKY/WX    TMP DP  RH WIND       PRES   REMARKS
GALLUP         FAIR      56  34  43 SW12      30.28S
GRANTS         FAIR      54  29  38 W5        30.29R
SILVER CITY    FAIR      62  39  42 W14       30.25S

$$
NMZ407-409-411-412-220200-
SOUTHERN DESERTS

CITY           SKY/WX    TMP DP  RH WIND       PRES   REMARKS
DEMING         FAIR      68  36  30 W12       30.21R
LAS CRUCES     FAIR      67  32  27 W7        30.21S
HOLLOMAN AFB     N/A     69  30  23 CALM      30.21S
ALAMOGORDO     FAIR      68  30  24 NW5       30.19S
T OR C         FAIR      67  33  28 S8        30.18F

$$
NMZ519>523-220200-
CENTRAL VALLEYS/CENTRAL HIGHLANDS

CITY           SKY/WX    TMP DP  RH WIND       PRES   REMARKS
ALBUQUERQUE    FAIR      65  24  21 N7        30.19F
DOUBLE EAGLE   PTCLDY    61  27  27 NW3       30.22S
MORIARTY ARPT  FAIR      57  24  28 NW7       30.23S
CLINES CORNERS FAIR      51  15  23 NW17      30.24S
BELEN          FAIR      64  30  27 E3        30.19S
SOCORRO        FAIR      64  34  32 S6        30.18F

$$
NMZ524>526-539-540-220200-
SOUTHCENTRAL MOUNTAINS

CITY           SKY/WX    TMP DP  RH WIND       PRES   REMARKS
RUIDOSO        NOT AVBL

$$
NMZ527>531-220200-
NORTHEAST HIGHLANDS/NORTHEAST PLAINS

CITY           SKY/WX    TMP DP  RH WIND       PRES   REMARKS
LAS VEGAS      FAIR      55  -3   9 NW15      30.19R
RATON          FAIR      56   0  10 W16       30.12R
CLAYTON        FAIR      56  23  27 S12       30.04R

$$
NMZ532>537-220200-
EASTCENTRAL PLAINS

CITY           SKY/WX    TMP DP  RH WIND       PRES   REMARKS
TUCUMCARI      FAIR      67  23  19 SE7       30.00S
CANNON AFB     FAIR      67  30  25 S5        30.05R
CLOVIS AIRPORT FAIR      66  30  26 SE6       30.06R

$$
NMZ028-029-538-220200-
SOUTHEAST PLAINS

CITY           SKY/WX    TMP DP  RH WIND       PRES   REMARKS
ROSWELL        FAIR      76  25  15 N8          N/A
ARTESIA        FAIR      72  34  25 SW15      30.06R
CARLSBAD       FAIR      73  32  22 W15       30.04R
HOBBS          CLEAR     68  30  24 S6        30.07R


$$




USA.gov is the U.S. government's official web portal to all federal, state and local government web resources and services.